Location: Asarope
(8.2500°N, 4.4833°E)
Time: 05:10:26
(UTC+00:00)

N. Korean satellite - Visible Passes

Search period start: 02 August 2021 00:00
Search period end: 12 August 2021 00:00
Orbit: 451 x 498 km, 97.2° (Epoch: 01 August)

Date Brightness Start Highest point End Pass type
(mag) Time Alt. Az. Time Alt. Az. Time Alt. Az.
03 Aug 6.3 04:47:18 10° N 04:50:44 73° WNW 04:54:07 10° SSW visible
04 Aug 8.2 04:20:10 10° NE 04:23:18 33° E 04:26:23 10° SSE visible
05 Aug 9.6 03:54:35 10° ENE 03:55:50 12° E 03:57:04 10° ESE visible
06 Aug 6.8 04:58:10 10° N 05:01:27 44° WNW 05:04:42 10° SSW visible
07 Aug 7.2 04:30:41 10° NNE 04:34:01 52° E 04:37:20 10° S visible
08 Aug 9.3 04:04:14 10° NE 04:06:33 17° E 04:08:52 10° SE visible
09 Aug 7.4 05:09:10 10° NNW 05:12:09 28° WNW 05:15:06 10° SW visible
10 Aug 6.4 04:41:19 10° NNE 04:44:43 86° ESE 04:48:06 10° S visible
11 Aug 8.6 04:14:22 10° NE 04:17:15 26° E 04:20:07 10° SSE visible
